DW2099 Weather Reports


time (UTC)temp
C
wind
direction
speed
KPH
gust
KPH
rain 1hr
cm
rain 24hr
cm
rain mn
cm
humidity
%
barometer
mb
20260502130517 10 158 1.6 4.8 0.00 0.00 0.00 95 1021.8
20260502123517 9 0.0 1.6 0.00 0.00 0.00 95 1021.2
20260502122516 9 0.0 0.0 0.00 0.00 0.00 94 1020.9
20260502121517 9 0.0 0.0 0.00 0.00 0.00 94 1020.8
20260502120517 9 0.0 0.0 0.00 0.00 0.00 94 1020.6
20260502115517 8 0.0 0.0 0.00 0.00 0.00 94 1020.7
20260502114517 9 0.0 0.0 0.00 0.00 0.00 94 1020.5
20260502113517 9 0.0 0.0 0.00 0.00 0.00 94 1020.3
20260502112517 9 0.0 0.0 0.00 0.00 0.00 94 1020.3
20260502111516 9 0.0 1.6 0.00 0.00 0.00 94 1020.2
20260502110516 10 0.0 0.0 0.00 0.00 0.00 94 1020.0
20260502105516 10 0.0 1.6 0.00 0.00 0.00 94 1020.0
20260502104517 10 0.0 0.0 0.00 0.00 0.00 94 1019.9
20260502103537 10 0.0 3.2 0.00 0.00 0.00 94 1019.6
20260502102517 10 0.0 1.6 0.00 0.00 0.00 94 1019.3
20260502101517 10 0.0 0.0 0.00 0.00 0.00 94 1019.0
20260502100517 10 0.0 1.6 0.00 0.00 0.00 94 1018.8
20260502091517 10 0.0 1.6 0.00 0.00 0.00 94 1018.5
20260502090517 10 203 1.6 8.0 0.00 0.00 0.00 94 1018.4
20260502071516 10 0.0 3.2 0.00 0.00 0.00 92 1017.9
20260502070516 10 0.0 1.6 0.00 0.00 0.00 92 1018.0
20260502065516 11 0.0 1.6 0.00 0.00 0.00 91 1018.2
20260502064516 11 0.0 0.0 0.00 0.00 0.00 91 1018.4
20260502063516 11 0.0 1.6 0.00 0.00 0.00 90 1018.4
20260502062516 11 0.0 1.6 0.00 0.00 0.00 90 1018.5
20260502061516 11 0.0 4.8 0.00 0.00 0.00 89 1018.4
20260502060516 11 0.0 4.8 0.00 0.00 0.00 89 1018.3
20260502055516 11 0.0 3.2 0.00 0.00 0.00 88 1018.4
20260502054516 11 0.0 1.6 0.00 0.00 0.00 88 1018.4
20260502053516 11 113 3.2 8.0 0.00 0.00 0.00 87 1018.4
20260502052516 12 158 1.6 4.8 0.00 0.00 0.00 87 1018.4
20260502051516 12 113 3.2 8.0 0.00 0.00 0.00 88 1018.4
20260502050516 11 135 1.6 8.0 0.00 0.00 0.00 87 1018.4
20260502045516 12 135 1.6 12.9 0.00 0.00 0.00 87 1018.4
20260502044516 12 158 3.2 14.5 0.00 0.00 0.00 87 1018.1
20260502043516 12 135 3.2 11.3 0.00 0.00 0.00 87 1018.0
20260502042536 12 135 3.2 11.3 0.00 0.00 0.00 87 1018.0
20260502041516 12 135 3.2 11.3 0.00 0.00 0.00 88 1018.0
20260502040516 12 135 4.8 11.3 0.00 0.00 0.00 89 1017.9
20260502035536 12 158 4.8 11.3 0.00 0.00 0.00 90 1017.7
20260502034516 13 158 1.6 6.4 0.00 0.00 0.00 91 1017.7
20260502033516 13 113 3.2 9.7 0.00 0.00 0.00 91 1017.8
20260502032516 13 225 3.2 12.9 0.00 0.00 0.00 91 1017.7
20260502031516 13 203 3.2 12.9 0.00 0.00 0.00 91 1017.6
20260502030516 13 113 4.8 11.3 0.00 0.00 0.00 91 1017.4
20260502025516 13 158 4.8 12.9 0.00 0.00 0.00 92 1017.3
20260502024536 13 135 1.6 14.5 0.00 0.00 0.00 92 1017.1
20260502023516 13 158 3.2 9.7 0.00 0.00 0.00 93 1017.1
20260502022536 13 135 1.6 6.4 0.00 0.00 0.00 93 1016.9
20260502021516 13 158 3.2 14.5 0.00 0.00 0.00 93 1016.7
20260502020536 13 180 1.6 6.4 0.00 0.00 0.00 94 1016.5
20260502015516 13 225 3.2 8.0 0.00 0.00 0.00 94 1016.5
20260502014516 13 203 3.2 12.9 0.00 0.00 0.00 94 1016.1
20260502013516 12 135 3.2 17.7 0.00 0.00 0.00 94 1015.9
20260502012516 12 158 4.8 14.5 0.00 0.00 0.00 94 1015.8
20260502011516 12 113 4.8 12.9 0.00 0.00 0.00 95 1015.6
20260502010536 12 180 3.2 11.3 0.00 0.00 0.00 95 1015.4
20260502005516 12 158 6.4 17.7 0.00 0.00 0.00 95 1015.0
20260502004516 12 135 4.8 16.1 0.00 0.00 0.00 95 1014.6
20260502003516 12 90 4.8 22.5 0.00 0.00 0.00 95 1014.4
20260502002516 12 135 6.4 16.1 0.00 0.00 0.00 95 1014.5
20260502001516 12 135 4.8 20.9 0.00 0.00 0.00 95 1014.6
20260502000516 12 203 4.8 24.1 0.00 0.00 0.00 95 1014.9
20260501235516 13 158 4.8 14.5 0.00 0.00 0.00 95 1014.8
20260501234516 13 113 6.4 25.7 0.00 0.00 0.00 95 1014.5
20260501233516 13 158 8.0 24.1 0.00 0.00 0.00 95 1014.7
20260501232516 13 135 6.4 16.1 0.00 0.00 0.00 95 1014.5
20260501231516 13 113 6.4 24.1 0.00 0.00 0.00 95 1013.9
20260501230516 13 203 3.2 8.0 0.00 0.00 0.00 95 1014.1
20260501225516 13 158 4.8 16.1 0.00 0.00 0.00 95 1013.9
20260501224536 14 113 6.4 20.9 0.00 0.00 0.00 95 1013.8
20260501223517 14 158 4.8 14.5 0.00 0.00 0.00 95 1013.6
20260501222536 14 135 6.4 17.7 0.00 0.00 0.00 95 1013.8
20260501221516 14 113 4.8 14.5 0.00 0.00 0.00 95 1013.4
20260501220516 14 135 6.4 14.5 0.00 0.00 0.00 95 1013.7
20260501215516 14 158 4.8 12.9 0.00 0.00 0.00 95 1012.8
20260501214536 15 135 3.2 8.0 0.00 0.00 0.00 95 1013.0
20260501213515 15 158 6.4 16.1 0.00 0.00 0.00 95 1012.8
20260501212516 15 135 3.2 11.3 0.00 0.00 0.00 95 1012.2
20260501211515 15 113 4.8 9.7 0.00 0.00 0.00 95 1011.6
20260501210535 15 113 4.8 9.7 0.00 0.00 0.00 95 1011.5
20260501205518 15 180 6.4 17.7 0.00 0.00 0.00 95 1011.5
20260501204517 15 113 3.2 11.3 0.00 0.00 0.00 95 1011.1
20260501203517 15 158 8.0 24.1 0.00 0.00 0.00 95 1010.6
20260501202517 15 158 4.8 14.5 0.00 0.00 0.00 95 1011.6
20260501201535 16 180 4.8 14.5 0.00 0.00 0.00 96 1011.8
20260501200517 15 158 4.8 11.3 0.00 0.00 0.00 96 1012.0
20260501195517 15 135 3.2 11.3 0.00 0.00 0.00 96 1013.1
20260501194538 15 113 4.8 12.9 0.00 0.00 0.00 96 1012.5
20260501193537 15 113 3.2 8.0 0.00 0.00 0.00 96 1012.7
20260501192518 15 135 1.6 8.0 0.00 0.03 0.00 96 1012.6
20260501191517 15 113 1.6 6.4 0.00 0.03 0.00 95 1012.8
20260501190517 15 158 6.4 17.7 0.00 0.03 0.00 95 1011.5
20260501185517 15 135 3.2 11.3 0.00 0.03 0.00 95 1011.8
20260501184517 15 180 6.4 22.5 0.00 0.03 0.00 95 1011.2
20260501183517 15 90 1.6 6.4 0.00 0.03 0.00 95 1013.5
20260501182518 15 135 4.8 12.9 0.00 0.03 0.00 95 1012.3
20260501181517 15 113 6.4 24.1 0.00 0.03 0.00 95 1012.0
20260501180517 15 225 3.2 11.3 0.00 0.03 0.00 95 1011.5
20260501175517 15 135 3.2 11.3 0.00 0.03 0.00 95 1012.9
20260501174618 15 158 3.2 9.7 0.00 0.03 0.00 95 1012.3
20260501173517 16 158 3.2 9.7 0.00 0.03 0.00 95 1012.0
20260501172558 16 158 1.6 8.0 0.00 0.03 0.00 96 1012.2
20260501171517 16 113 3.2 8.0 0.00 0.03 0.00 96 1012.1
20260501170517 16 158 3.2 11.3 0.00 0.03 0.00 96 1011.6
20260501165518 16 113 3.2 12.9 0.00 0.03 0.00 96 1011.6
20260501164517 16 270 1.6 6.4 0.00 0.03 0.00 96 1011.5
20260501163517 16 90 3.2 11.3 0.00 0.03 0.00 96 1010.8
20260501162518 16 293 3.2 12.9 0.00 0.03 0.00 96 1010.9
20260501161517 15 270 3.2 9.7 0.00 0.03 0.00 96 1011.4
20260501160517 15 203 1.6 6.4 0.00 0.03 0.00 96 1013.5
20260501155517 15 113 1.6 8.0 0.00 0.03 0.00 96 1014.4
20260501154537 15 158 3.2 11.3 0.00 0.03 0.00 96 1013.4
20260501153517 15 203 1.6 11.3 0.00 0.03 0.00 96 1013.4
20260501152517 16 203 1.6 6.4 0.00 0.03 0.00 96 1013.5
20260501151517 16 135 1.6 6.4 0.00 0.03 0.00 96 1012.8
20260501150517 16 315 4.8 16.1 0.00 0.03 0.00 96 1012.4
20260501145538 16 270 3.2 9.7 0.00 0.03 0.00 96 1012.5
20260501144537 16 135 1.6 11.3 0.00 0.03 0.00 96 1013.4
20260501143517 15 113 1.6 8.0 0.00 0.03 0.00 96 1015.1
20260501142517 15 135 3.2 12.9 0.00 0.03 0.00 96 1014.7
20260501141557 15 113 3.2 11.3 0.00 0.03 0.00 96 1015.1
20260501140537 15 225 3.2 12.9 0.00 0.03 0.00 96 1013.9